DW4188 Weather Reports


time (UTC)temp
F
wind
direction
speed
knots
gust
knots
rain 1hr
in
rain 24hr
in
rain mn
in
humidity
%
barometer
mb
20260505110903 71 0 0.0 0.0 0.00 0.00 0.00 85 1014.7
20260505101804 72 0 0.0 0.0 0.00 0.00 0.00 85 1014.2
20260505100903 72 0 0.0 0.0 0.00 0.00 0.00 85 1014.3
20260505100003 72 0 0.0 0.0 0.00 0.00 0.00 85 1014.5
20260505095404 72 0 0.0 0.0 0.00 0.00 0.00 84 1014.4
20260505094504 72 0 0.0 0.0 0.00 0.00 0.00 84 1014.5
20260505093604 72 0 0.0 0.0 0.00 0.00 0.00 84 1014.4
20260505092704 72 0 0.0 0.0 0.00 0.00 0.00 84 1014.3
20260505091804 72 0 0.0 0.0 0.00 0.00 0.00 84 1014.1
20260505090924 72 0 0.0 0.0 0.00 0.00 0.00 83 1014.1
20260505090004 72 0 0.0 0.0 0.00 0.00 0.00 83 1013.9
20260505085403 72 0 0.0 0.0 0.00 0.00 0.00 83 1014.1
20260505084504 73 0 0.0 0.0 0.00 0.00 0.00 83 1013.9
20260505083603 73 0 0.0 0.0 0.00 0.00 0.00 83 1013.4
20260505082704 73 0 0.0 0.0 0.00 0.00 0.00 82 1013.2
20260505081803 73 0 0.0 0.0 0.00 0.00 0.00 82 1013.2
20260505080904 73 0 0.0 0.0 0.00 0.00 0.00 82 1012.6
20260505080004 73 0 0.0 0.0 0.00 0.00 0.00 81 1012.7
20260505075404 73 0 0.0 0.0 0.00 0.00 0.00 81 1013.0
20260505074504 74 0 0.0 0.0 0.00 0.00 0.00 81 1012.9
20260505073604 74 0 0.0 0.0 0.00 0.00 0.00 81 1012.7
20260505072704 74 0 0.0 0.0 0.00 0.00 0.00 81 1012.6
20260505071804 74 0 0.0 0.0 0.00 0.00 0.00 81 1012.5
20260505070905 74 0 0.0 0.0 0.00 0.00 0.00 80 1012.6
20260505070004 75 0 0.0 0.0 0.00 0.00 0.00 80 1012.4
20260505065404 75 0 0.0 0.0 0.00 0.00 0.00 80 1012.3
20260505064525 75 0 0.0 0.0 0.00 0.00 0.00 80 1012.5
20260505063604 75 0 0.0 0.0 0.00 0.00 0.00 79 1012.4
20260505062704 75 0 0.0 0.0 0.00 0.00 0.00 79 1012.3
20260505061804 75 0 0.0 0.0 0.00 0.00 0.00 78 1012.6
20260505060903 75 0 0.0 0.0 0.00 0.00 0.00 78 1012.3
20260505060025 75 0 0.0 0.0 0.00 0.00 0.00 78 1012.1
20260505055425 75 0 0.0 0.0 0.00 0.00 0.00 78 1012.1
20260505054525 76 0 0.0 0.0 0.00 0.00 0.00 77 1012.2
20260505053603 76 0 0.0 0.0 0.00 0.00 0.00 77 1012.2
20260505052704 76 0 0.0 0.0 0.00 0.00 0.00 77 1012.3
20260505051803 76 0 0.0 0.0 0.00 0.00 0.00 77 1012.4
20260505050924 76 0 0.0 0.0 0.00 0.00 0.00 77 1012.2
20260505040904 77 0 0.0 0.0 0.00 0.00 0.00 74 1011.8
20260505040004 77 0 0.0 0.0 0.00 0.00 0.00 74 1011.7
20260505035404 77 0 0.0 0.0 0.00 0.00 0.00 74 1011.7
20260505034525 77 0 0.0 0.0 0.00 0.00 0.00 71 1011.9
20260505033604 77 0 0.0 0.0 0.00 0.00 0.00 71 1011.7
20260505032703 77 0 0.0 0.0 0.00 0.00 0.00 71 1011.8
20260505031803 77 0 0.0 0.0 0.00 0.00 0.00 69 1011.7
20260505030903 77 0 0.0 0.0 0.00 0.00 0.00 70 1011.9
20260505030004 76 0 0.0 0.0 0.00 0.00 0.00 68 1012.1
20260505025404 76 0 0.0 0.0 0.00 0.00 0.00 70 1012.1
20260505024503 76 0 0.0 0.0 0.00 0.00 0.00 72 1012.3
20260505023624 76 0 0.0 0.0 0.00 0.00 0.00 70 1012.5
20260505022703 76 0 0.0 0.0 0.00 0.00 0.00 71 1012.6
20260505021803 76 0 0.0 0.0 0.00 0.00 0.00 72 1012.5
20260505020903 76 0 0.0 0.0 0.00 0.00 0.00 72 1012.7
20260505020024 76 0 0.0 0.0 0.00 0.00 0.00 72 1012.7
20260505015404 76 0 0.0 0.0 0.00 0.00 0.00 74 1012.9
20260505014503 76 0 0.0 0.0 0.00 0.00 0.00 74 1013.0
20260505013604 76 0 0.0 0.0 0.00 0.00 0.00 73 1013.2
20260505012725 75 0 0.0 0.0 0.00 0.00 0.00 74 1013.3
20260505011803 74 0 0.0 0.0 0.00 0.00 0.00 77 1013.7
20260505010904 74 0 0.0 0.0 0.00 0.00 0.00 77 1013.8
20260505010004 74 0 0.0 0.0 0.00 0.00 0.00 79 1014.1
20260505005403 74 0 0.0 0.0 0.00 0.00 0.00 80 1014.0
20260505004504 73 0 0.0 0.0 0.00 0.00 0.00 81 1014.1
20260505003604 73 0 0.0 0.0 0.00 0.00 0.00 82 1014.2
20260505002724 73 0 0.0 0.0 0.00 0.00 0.00 82 1014.1
20260505001804 73 0 0.0 0.0 0.00 0.00 0.00 82 1014.4
20260505000904 73 0 0.0 0.0 0.00 0.00 0.00 83 1014.3
20260505000003 73 0 0.0 0.0 0.00 0.00 0.00 83 1014.5
20260504235425 73 0 0.0 0.0 0.00 0.00 0.00 83 1014.6
20260504234504 72 0 0.0 0.0 0.00 0.00 0.00 84 1014.6
20260504233626 72 0 0.0 0.0 0.00 0.00 0.00 85 1014.5
20260504232704 72 0 0.0 0.0 0.00 0.00 0.00 85 1014.5
20260504231825 71 0 0.0 0.0 0.00 0.00 0.00 86 1014.8
20260504230904 71 0 0.0 0.0 0.00 0.00 0.00 86 1014.8
20260504230004 71 0 0.0 0.0 0.00 0.00 0.00 87 1015.0
20260504225404 71 0 0.0 0.0 0.00 0.00 0.00 87 1014.9
20260504224503 70 0 0.0 0.0 0.00 0.00 0.00 88 1014.7
20260504223603 70 0 0.0 0.0 0.00 0.00 0.00 88 1014.9
20260504222704 70 0 0.0 0.0 0.00 0.00 0.00 88 1014.7
20260504221804 69 0 0.0 0.0 0.00 0.00 0.00 88 1014.8
20260504220903 69 0 0.0 0.0 0.00 0.00 0.00 88 1014.8
20260504220004 69 0 0.0 0.0 0.00 0.00 0.00 88 1014.7
20260504215424 69 0 0.0 0.0 0.00 0.00 0.00 88 1014.8
20260504214504 68 0 0.0 0.0 0.00 0.00 0.00 88 1015.0
20260504213604 68 0 0.0 0.0 0.00 0.00 0.00 88 1014.8
20260504212704 68 0 0.0 0.0 0.00 0.00 0.00 88 1014.7
20260504211804 68 0 0.0 0.0 0.00 0.00 0.00 88 1014.6
20260504210903 68 0 0.0 0.0 0.00 0.00 0.00 88 1014.3
20260504210024 68 0 0.0 0.0 0.00 0.00 0.00 88 1014.6
20260504205403 68 0 0.0 0.0 0.00 0.00 0.00 88 1014.2
20260504204524 68 0 0.0 0.0 0.00 0.00 0.00 88 1014.1
20260504203604 68 0 0.0 0.0 0.00 0.00 0.00 88 1014.4
20260504202703 68 0 0.0 0.0 0.00 0.00 0.00 88 1014.1
20260504201804 68 0 0.0 0.0 0.00 0.00 0.00 88 1014.0
20260504200904 68 0 0.0 0.0 0.00 0.00 0.00 88 1013.8
20260504200004 68 0 0.0 0.0 0.00 0.00 0.00 88 1013.8
20260504195403 68 0 0.0 0.0 0.00 0.00 0.00 88 1013.7
20260504194504 68 0 0.0 0.0 0.00 0.00 0.00 88 1013.5
20260504193625 68 0 0.0 0.0 0.00 0.00 0.00 88 1013.4
20260504192725 68 0 0.0 0.0 0.00 0.00 0.00 88 1013.5
20260504191804 68 0 0.0 0.0 0.00 0.00 0.00 88 1013.3
20260504190903 68 0 0.0 0.0 0.00 0.00 0.00 88 1013.3
20260504190003 68 0 0.0 0.0 0.00 0.00 0.00 88 1013.4
20260504185404 68 0 0.0 0.0 0.00 0.00 0.00 88 1013.2
20260504184504 68 0 0.0 0.0 0.00 0.00 0.00 88 1013.3
20260504183603 68 0 0.0 0.0 0.00 0.00 0.00 88 1013.3
20260504182704 69 0 0.0 0.0 0.00 0.00 0.00 88 1013.2
20260504181804 69 0 0.0 0.0 0.00 0.00 0.00 88 1013.1
20260504180904 69 0 0.0 0.0 0.00 0.00 0.00 88 1013.1
20260504180003 69 0 0.0 0.0 0.00 0.00 0.00 88 1013.0
20260504175404 69 0 0.0 0.0 0.00 0.00 0.00 88 1012.9
20260504174525 69 0 0.0 0.0 0.00 0.00 0.00 88 1013.0
20260504173604 69 0 0.0 0.0 0.00 0.00 0.00 88 1013.1
20260504172703 69 0 0.0 0.0 0.00 0.00 0.00 88 1013.2
20260504171803 69 0 0.0 0.0 0.00 0.00 0.00 88 1012.9
20260504170925 69 0 0.0 0.0 0.00 0.00 0.00 88 1012.9
20260504150904 69 0 0.0 0.0 0.00 0.00 0.00 87 1013.6
20260504140904 70 0 0.0 0.0 0.00 0.00 0.00 86 1014.1